| time (UTC) | temp F | wind direction | speed MPH | gust MPH | rain 1hr in | rain 24hr in | rain mn in | humidity % | barometer mb |
| 20260831123503 | 73 | 217 | 3.0 | 15.0 | 0.00 | 0.05 | 0.05 | 69 | 1006.3 |
| 20260831123003 | 73 | 246 | 5.0 | 15.0 | 0.00 | 0.05 | 0.05 | 68 | 1006.4 |
| 20260831122505 | 73 | 245 | 5.0 | 15.0 | 0.00 | 0.05 | 0.05 | 70 | 1006.3 |
| 20260831122005 | 73 | 222 | 5.0 | 15.0 | 0.00 | 0.05 | 0.05 | 70 | 1006.3 |
| 20260831121505 | 72 | 202 | 5.0 | 15.0 | 0.00 | 0.05 | 0.05 | 70 | 1006.3 |
| 20260831121005 | 72 | 209 | 4.0 | 15.0 | 0.00 | 0.05 | 0.05 | 72 | 1006.2 |
| 20260831120504 | 72 | 189 | 3.0 | 15.0 | 0.00 | 0.05 | 0.05 | 72 | 1006.6 |
| 20260831120005 | 72 | 188 | 4.0 | 16.0 | 0.00 | 0.05 | 0.05 | 73 | 1006.3 |
| 20260831115505 | 72 | 203 | 4.0 | 16.0 | 0.00 | 0.05 | 0.05 | 73 | 1006.4 |
| 20260831115004 | 72 | 192 | 4.0 | 16.0 | 0.00 | 0.05 | 0.05 | 74 | 1006.2 |
| 20260831114504 | 72 | 195 | 3.0 | 15.0 | 0.00 | 0.05 | 0.05 | 74 | 1006.3 |
| 20260831114217 | 71 | 207 | 4.0 | 18.0 | 0.00 | 0.05 | 0.05 | 75 | 1006.4 |
| 20260831113505 | 71 | 234 | 5.0 | 18.0 | 0.00 | 0.06 | 0.05 | 76 | 1006.3 |
| 20260831113004 | 71 | 237 | 4.0 | 15.0 | 0.00 | 0.07 | 0.05 | 75 | 1006.3 |
| 20260831112504 | 71 | 240 | 3.0 | 11.0 | 0.00 | 0.07 | 0.05 | 75 | 1006.4 |
| 20260831112005 | 71 | 228 | 3.0 | 15.0 | 0.00 | 0.07 | 0.05 | 75 | 1006.4 |
| 20260831111718 | 71 | 235 | 4.0 | 15.0 | 0.00 | 0.07 | 0.05 | 75 | 1006.5 |
| 20260831111005 | 71 | 251 | 2.0 | 11.0 | 0.00 | 0.07 | 0.05 | 76 | 1006.4 |
| 20260831110504 | 71 | 265 | 2.0 | 8.0 | 0.00 | 0.07 | 0.05 | 77 | 1006.1 |
| 20260831110004 | 70 | 195 | 4.0 | 14.0 | 0.00 | 0.07 | 0.05 | 76 | 1006.3 |
| 20260831105503 | 71 | 187 | 4.0 | 14.0 | 0.00 | 0.07 | 0.05 | 76 | 1006.4 |
| 20260831105003 | 71 | 227 | 4.0 | 12.0 | 0.00 | 0.07 | 0.05 | 76 | 1006.4 |
| 20260831104504 | 71 | 242 | 4.0 | 12.0 | 0.00 | 0.07 | 0.05 | 77 | 1006.4 |
| 20260831104005 | 71 | 225 | 4.0 | 15.0 | 0.00 | 0.07 | 0.05 | 78 | 1006.6 |
| 20260831103505 | 71 | 225 | 4.0 | 15.0 | 0.00 | 0.07 | 0.05 | 79 | 1006.6 |
| 20260831103005 | 70 | 233 | 4.0 | 15.0 | 0.00 | 0.07 | 0.05 | 80 | 1006.6 |
| 20260831102720 | 70 | 241 | 3.0 | 12.0 | 0.00 | 0.07 | 0.05 | 81 | 1006.6 |
| 20260831102003 | 69 | 210 | 2.0 | 8.0 | 0.00 | 0.07 | 0.05 | 81 | 1006.7 |
| 20260831101504 | 70 | 208 | 3.0 | 11.0 | 0.00 | 0.07 | 0.05 | 81 | 1006.9 |
| 20260831101003 | 70 | 214 | 4.0 | 14.0 | 0.00 | 0.07 | 0.05 | 81 | 1006.8 |
| 20260831100503 | 70 | 223 | 3.0 | 14.0 | 0.00 | 0.07 | 0.05 | 82 | 1006.9 |
| 20260831100004 | 69 | 213 | 2.0 | 7.0 | 0.00 | 0.07 | 0.05 | 83 | 1006.9 |
| 20260831095504 | 69 | 201 | 3.0 | 10.0 | 0.00 | 0.07 | 0.05 | 82 | 1006.9 |
| 20260831095006 | 69 | 210 | 3.0 | 14.0 | 0.00 | 0.07 | 0.05 | 82 | 1006.9 |
| 20260831094506 | 69 | 221 | 2.0 | 14.0 | 0.00 | 0.07 | 0.05 | 82 | 1006.9 |
| 20260831094003 | 69 | 213 | 2.0 | 14.0 | 0.00 | 0.07 | 0.05 | 82 | 1006.9 |
| 20260831093505 | 69 | 201 | 3.0 | 10.0 | 0.00 | 0.07 | 0.05 | 82 | 1007.0 |
| 20260831093003 | 69 | 200 | 2.0 | 10.0 | 0.00 | 0.07 | 0.05 | 82 | 1006.8 |
| 20260831062219 | 62 | 200 | 3.0 | 10.0 | 0.00 | 0.09 | 0.05 | 99 | 1007.0 |
| 20260831061504 | 62 | 192 | 2.0 | 10.0 | 0.00 | 0.10 | 0.05 | 99 | 1007.0 |
| 20260831061003 | 62 | 163 | 1.0 | 5.0 | 0.00 | 0.10 | 0.05 | 99 | 1006.9 |
| 20260831060505 | 62 | 174 | 1.0 | 7.0 | 0.00 | 0.10 | 0.05 | 99 | 1007.1 |
| 20260831060004 | 62 | 186 | 1.0 | 8.0 | 0.00 | 0.11 | 0.05 | 99 | 1007.0 |
| 20260831055503 | 61 | 189 | 2.0 | 8.0 | 0.00 | 0.11 | 0.05 | 99 | 1007.1 |
| 20260831055221 | 61 | 185 | 1.0 | 8.0 | 0.00 | 0.11 | 0.05 | 99 | 1007.0 |
| 20260831054505 | 61 | 186 | 2.0 | 8.0 | 0.00 | 0.11 | 0.05 | 99 | 1006.8 |